Time,TemperatureF,DewpointF,PressureIn,WindDirection,WindDirectionDegrees,WindSpeedMPH,WindSpeedGustMPH,Humidity,HourlyPrecipIn,Conditions,Clouds,dailyrainin,SoftwareType,DateUTC
2013-04-02 00:00:00,33.2,13.1,29.91,West,268,0.0,4.0,43,0.00,,---,0.00,VWS V14.01,2013-04-02 04:00:00,
2013-04-02 00:05:00,32.9,13.4,29.91,WNW,287,0.0,1.0,44,0.00,,---,0.00,VWS V14.01,2013-04-02 04:05:00,
2013-04-02 00:10:00,32.7,13.2,29.91,WNW,286,0.0,0.0,44,0.00,,---,0.00,VWS V14.01,2013-04-02 04:10:00,
2013-04-02 00:15:00,32.5,13.5,29.91,WNW,286,0.0,0.0,45,0.00,,---,0.00,VWS V14.01,2013-04-02 04:15:00,
2013-04-02 00:20:00,32.7,13.2,29.91,WNW,286,0.0,1.0,44,0.00,,---,0.00,VWS V14.01,2013-04-02 04:20:00,
2013-04-02 00:25:00,32.5,13.5,29.91,WNW,287,0.0,0.0,45,0.00,,---,0.00,VWS V14.01,2013-04-02 04:25:00,
2013-04-02 00:30:00,32.5,13.5,29.91,West,279,0.0,3.0,45,0.00,,---,0.00,VWS V14.01,2013-04-02 04:30:00,
2013-04-02 00:35:00,32.4,13.4,29.91,West,277,0.0,2.0,45,0.00,,---,0.00,VWS V14.01,2013-04-02 04:35:00,
2013-04-02 00:40:00,32.1,14.2,29.91,West,277,0.0,0.0,47,0.00,,---,0.00,VWS V14.01,2013-04-02 04:40:00,
2013-04-02 00:45:00,31.8,13.4,29.92,West,278,0.0,0.0,46,0.00,,---,0.00,VWS V14.01,2013-04-02 04:45:00,
2013-04-02 00:50:00,32.1,13.2,29.92,West,277,0.0,0.0,45,0.00,,---,0.00,VWS V14.01,2013-04-02 04:50:00,
2013-04-02 00:55:00,32.2,12.8,29.92,West,277,0.0,0.0,44,0.00,,---,0.00,VWS V14.01,2013-04-02 04:55:00,
2013-04-02 01:00:00,32.1,13.2,29.92,West,277,0.0,0.0,45,0.00,,---,0.00,VWS V14.01,2013-04-02 05:00:00,
2013-04-02 01:05:00,31.5,13.6,29.92,West,277,0.0,0.0,47,0.00,,---,0.00,VWS V14.01,2013-04-02 05:05:00,
2013-04-02 01:10:00,31.5,13.6,29.92,West,277,0.0,0.0,47,0.00,,---,0.00,VWS V14.01,2013-04-02 05:10:00,
2013-04-02 01:15:00,31.3,13.4,29.92,West,277,0.0,0.0,47,0.00,,---,0.00,VWS V14.01,2013-04-02 05:15:00,
2013-04-02 01:20:00,30.7,13.8,29.92,West,277,0.0,0.0,49,0.00,,---,0.00,VWS V14.01,2013-04-02 05:20:00,
2013-04-02 01:25:00,30.6,13.7,29.92,West,277,0.0,0.0,49,0.00,,---,0.00,VWS V14.01,2013-04-02 05:25:00,
2013-04-02 01:30:00,30.7,13.8,29.92,West,278,0.0,0.0,49,0.00,,---,0.00,VWS V14.01,2013-04-02 05:30:00,
2013-04-02 01:35:00,31.0,13.1,29.92,West,278,0.0,0.0,47,0.00,,---,0.00,VWS V14.01,2013-04-02 05:35:00,
2013-04-02 01:40:00,31.3,13.4,29.92,West,278,0.0,0.0,47,0.00,,---,0.00,VWS V14.01,2013-04-02 05:40:00,
2013-04-02 01:45:00,31.8,13.4,29.92,West,278,2.0,2.0,46,0.00,,---,0.00,VWS V14.01,2013-04-02 05:45:00,
2013-04-02 01:50:00,31.6,14.6,29.92,West,279,0.0,1.0,49,0.00,,---,0.00,VWS V14.01,2013-04-02 05:50:00,
2013-04-02 01:55:00,31.8,13.4,29.92,West,279,0.0,0.0,46,0.00,,---,0.00,VWS V14.01,2013-04-02 05:55:00,
2013-04-02 02:00:00,31.3,13.9,29.92,West,279,0.0,0.0,48,0.00,,---,0.00,VWS V14.01,2013-04-02 06:00:00,
2013-04-02 02:05:00,31.3,13.4,29.92,West,279,0.0,0.0,47,0.00,,---,0.00,VWS V14.01,2013-04-02 06:05:00,
2013-04-02 02:10:00,30.6,14.2,29.92,West,279,0.0,0.0,50,0.00,,---,0.00,VWS V14.01,2013-04-02 06:10:00,
2013-04-02 02:15:00,31.0,13.1,29.92,West,279,0.0,0.0,47,0.00,,---,0.00,VWS V14.01,2013-04-02 06:15:00,
2013-04-02 02:20:00,30.1,16.7,29.92,West,279,0.0,0.0,57,0.00,,---,0.00,VWS V14.01,2013-04-02 06:20:00,
2013-04-02 02:25:00,29.8,15.6,29.92,West,279,0.0,0.0,55,0.00,,---,0.00,VWS V14.01,2013-04-02 06:25:00,
2013-04-02 02:30:00,29.7,14.7,29.92,West,277,0.0,0.0,53,0.00,,---,0.00,VWS V14.01,2013-04-02 06:30:00,
2013-04-02 02:35:00,29.5,14.5,29.92,West,277,0.0,0.0,53,0.00,,---,0.00,VWS V14.01,2013-04-02 06:35:00,
2013-04-02 02:40:00,30.4,13.5,29.92,West,277,0.0,1.0,49,0.00,,---,0.00,VWS V14.01,2013-04-02 06:40:00,
2013-04-02 02:45:00,29.5,14.9,29.92,West,277,0.0,0.0,54,0.00,,---,0.00,VWS V14.01,2013-04-02 06:45:00,
2013-04-02 02:50:00,29.3,16.0,29.92,West,276,1.0,2.0,57,0.00,,---,0.00,VWS V14.01,2013-04-02 06:50:00,
2013-04-02 02:55:00,29.3,16.8,29.92,West,276,0.0,1.0,59,0.00,,---,0.00,VWS V14.01,2013-04-02 06:55:00,
2013-04-02 03:00:00,29.4,16.9,29.92,West,276,0.0,2.0,59,0.00,,---,0.00,VWS V14.01,2013-04-02 07:00:00,
2013-04-02 03:05:00,28.5,18.2,29.92,West,275,0.0,1.0,65,0.00,,---,0.00,VWS V14.01,2013-04-02 07:05:00,
2013-04-02 03:10:00,28.4,16.3,29.92,West,275,0.0,0.0,60,0.00,,---,0.00,VWS V14.01,2013-04-02 07:10:00,
2013-04-02 03:15:00,28.5,17.9,29.92,West,275,0.0,0.0,64,0.00,,---,0.00,VWS V14.01,2013-04-02 07:15:00,
2013-04-02 03:20:00,28.8,18.9,29.92,WSW,237,1.0,2.0,66,0.00,,---,0.00,VWS V14.01,2013-04-02 07:20:00,
2013-04-02 03:25:00,29.0,18.4,29.92,SW,228,0.0,2.0,64,0.00,,---,0.00,VWS V14.01,2013-04-02 07:25:00,
2013-04-02 03:30:00,27.9,19.7,29.92,SW,228,0.0,0.0,71,0.00,,---,0.00,VWS V14.01,2013-04-02 07:30:00,
2013-04-02 03:35:00,27.9,18.4,29.92,SW,228,0.0,0.0,67,0.00,,---,0.00,VWS V14.01,2013-04-02 07:35:00,
2013-04-02 03:40:00,28.1,18.9,29.92,SW,228,0.0,0.0,68,0.00,,---,0.00,VWS V14.01,2013-04-02 07:40:00,
2013-04-02 03:45:00,28.4,19.9,29.92,SW,228,0.0,0.0,70,0.00,,---,0.00,VWS V14.01,2013-04-02 07:45:00,
2013-04-02 03:50:00,28.4,19.5,29.92,SW,228,0.0,0.0,69,0.00,,---,0.00,VWS V14.01,2013-04-02 07:50:00,
2013-04-02 03:55:00,28.4,18.9,29.92,SW,228,0.0,0.0,67,0.00,,---,0.00,VWS V14.01,2013-04-02 07:55:00,
2013-04-02 04:00:00,28.2,18.3,29.92,SW,221,0.0,2.0,66,0.00,,---,0.00,VWS V14.01,2013-04-02 08:00:00,
2013-04-02 04:05:00,28.4,16.3,29.92,SSW,195,0.0,2.0,60,0.00,,---,0.00,VWS V14.01,2013-04-02 08:05:00,
2013-04-02 04:10:00,28.1,17.5,29.92,SSW,195,0.0,0.0,64,0.00,,---,0.00,VWS V14.01,2013-04-02 08:10:00,
2013-04-02 04:15:00,27.8,17.6,29.92,SSW,195,0.0,0.0,65,0.00,,---,0.00,VWS V14.01,2013-04-02 08:15:00,
2013-04-02 04:20:00,27.8,18.3,29.92,SSW,195,0.0,0.0,67,0.00,,---,0.00,VWS V14.01,2013-04-02 08:20:00,
2013-04-02 04:25:00,27.9,16.2,29.92,SSW,195,0.0,0.0,61,0.00,,---,0.00,VWS V14.01,2013-04-02 08:25:00,
2013-04-02 04:30:00,27.6,15.6,29.93,SSW,195,0.0,0.0,60,0.00,,---,0.00,VWS V14.01,2013-04-02 08:30:00,
2013-04-02 04:35:00,27.6,15.6,29.93,SSW,195,0.0,0.0,60,0.00,,---,0.00,VWS V14.01,2013-04-02 08:35:00,
2013-04-02 04:40:00,27.9,16.2,29.93,SSW,195,0.0,0.0,61,0.00,,---,0.00,VWS V14.01,2013-04-02 08:40:00,
2013-04-02 04:45:00,27.9,15.1,29.93,SSW,195,0.0,0.0,58,0.00,,---,0.00,VWS V14.01,2013-04-02 08:45:00,
2013-04-02 04:50:00,28.5,14.0,29.93,SSW,195,0.0,0.0,54,0.00,,---,0.00,VWS V14.01,2013-04-02 08:50:00,
2013-04-02 04:55:00,28.8,13.8,29.93,SSW,195,0.0,0.0,53,0.00,,---,0.00,VWS V14.01,2013-04-02 08:55:00,
2013-04-02 05:00:00,28.1,14.8,29.93,SSW,195,0.0,0.0,57,0.00,,---,0.00,VWS V14.01,2013-04-02 09:00:00,
2013-04-02 05:05:00,28.4,13.9,29.93,SSW,195,0.0,0.0,54,0.00,,---,0.00,VWS V14.01,2013-04-02 09:05:00,
2013-04-02 05:10:00,28.7,13.8,29.93,SSW,195,0.0,0.0,53,0.00,,---,0.00,VWS V14.01,2013-04-02 09:10:00,
2013-04-02 05:15:00,27.8,14.2,29.94,SSW,195,0.0,0.0,56,0.00,,---,0.00,VWS V14.01,2013-04-02 09:15:00,
2013-04-02 05:20:00,27.6,15.6,29.94,SSW,195,0.0,0.0,60,0.00,,---,0.00,VWS V14.01,2013-04-02 09:20:00,
2013-04-02 05:25:00,27.2,14.4,29.94,SSW,195,0.0,0.0,58,0.00,,---,0.00,VWS V14.01,2013-04-02 09:25:00,
2013-04-02 05:30:00,27.0,15.7,29.94,SSW,195,0.0,0.0,62,0.00,,---,0.00,VWS V14.01,2013-04-02 09:30:00,
2013-04-02 05:35:00,27.2,14.8,29.94,SSW,195,0.0,0.0,59,0.00,,---,0.00,VWS V14.01,2013-04-02 09:35:00,
2013-04-02 05:40:00,26.9,14.5,29.94,SSW,194,0.0,2.0,59,0.00,,---,0.00,VWS V14.01,2013-04-02 09:40:00,
2013-04-02 05:45:00,26.9,14.5,29.94,SSW,194,0.0,0.0,59,0.00,,---,0.00,VWS V14.01,2013-04-02 09:45:00,
2013-04-02 05:50:00,27.9,13.8,29.94,SSW,194,0.0,0.0,55,0.00,,---,0.00,VWS V14.01,2013-04-02 09:50:00,
2013-04-02 05:55:00,28.5,14.4,29.94,SSW,194,0.0,0.0,55,0.00,,---,0.00,VWS V14.01,2013-04-02 09:55:00,
2013-04-02 06:00:00,28.7,14.2,29.95,SSW,194,0.0,0.0,54,0.00,,---,0.00,VWS V14.01,2013-04-02 10:00:00,
2013-04-02 06:05:00,28.7,14.2,29.95,SSW,194,0.0,0.0,54,0.00,,---,0.00,VWS V14.01,2013-04-02 10:05:00,
2013-04-02 06:10:00,28.5,14.0,29.95,SSW,194,0.0,0.0,54,0.00,,---,0.00,VWS V14.01,2013-04-02 10:10:00,
2013-04-02 06:15:00,28.2,14.1,29.95,SSW,194,0.0,0.0,55,0.00,,---,0.00,VWS V14.01,2013-04-02 10:15:00,
2013-04-02 06:20:00,28.1,14.4,29.95,SSW,194,0.0,0.0,56,0.00,,---,0.00,VWS V14.01,2013-04-02 10:20:00,
2013-04-02 06:25:00,27.8,14.2,29.95,SSW,194,0.0,0.0,56,0.00,,---,0.00,VWS V14.01,2013-04-02 10:25:00,
2013-04-02 06:30:00,27.6,14.4,29.96,SSW,194,0.0,0.0,57,0.00,,---,0.00,VWS V14.01,2013-04-02 10:30:00,
2013-04-02 06:35:00,27.9,14.2,29.96,SSW,194,0.0,0.0,56,0.00,,---,0.00,VWS V14.01,2013-04-02 10:35:00,
2013-04-02 06:40:00,27.8,14.2,29.96,SSW,194,0.0,0.0,56,0.00,,---,0.00,VWS V14.01,2013-04-02 10:40:00,
2013-04-02 06:45:00,27.5,14.3,29.96,SSW,194,0.0,0.0,57,0.00,,---,0.00,VWS V14.01,2013-04-02 10:45:00,
2013-04-02 06:50:00,27.8,14.6,29.96,SW,219,2.0,3.0,57,0.00,,---,0.00,VWS V14.01,2013-04-02 10:50:00,
2013-04-02 06:55:00,27.9,14.6,29.96,SW,223,0.0,1.0,57,0.00,,---,0.00,VWS V14.01,2013-04-02 10:55:00,
2013-04-02 07:00:00,27.9,14.6,29.97,SW,224,0.0,2.0,57,0.00,,---,0.00,VWS V14.01,2013-04-02 11:00:00,
2013-04-02 07:05:00,28.1,14.8,29.97,NW,309,2.0,5.0,57,0.00,,---,0.00,VWS V14.01,2013-04-02 11:05:00,
2013-04-02 07:10:00,28.2,14.9,29.97,NW,309,0.0,1.0,57,0.00,,---,0.00,VWS V14.01,2013-04-02 11:10:00,
2013-04-02 07:15:00,28.2,14.5,29.98,NW,309,0.0,0.0,56,0.00,,---,0.00,VWS V14.01,2013-04-02 11:15:00,
2013-04-02 07:20:00,28.4,14.7,29.98,NW,309,0.0,0.0,56,0.00,,---,0.00,VWS V14.01,2013-04-02 11:20:00,
2013-04-02 07:25:00,28.4,14.7,29.98,WNW,302,0.0,2.0,56,0.00,,---,0.00,VWS V14.01,2013-04-02 11:25:00,
2013-04-02 07:30:00,28.4,14.7,30.00,WNW,302,0.0,3.0,56,0.00,,---,0.00,VWS V14.01,2013-04-02 11:30:00,
2013-04-02 07:35:00,28.1,14.8,30.00,WNW,296,0.0,3.0,57,0.00,,---,0.00,VWS V14.01,2013-04-02 11:35:00,
2013-04-02 07:40:00,28.4,15.1,30.00,West,270,1.0,3.0,57,0.00,,---,0.00,VWS V14.01,2013-04-02 11:40:00,
2013-04-02 07:45:00,29.1,15.0,30.00,WNW,289,0.0,4.0,55,0.00,,---,0.00,VWS V14.01,2013-04-02 11:45:00,
2013-04-02 07:50:00,29.5,14.9,30.00,WNW,289,2.0,7.0,54,0.00,,---,0.00,VWS V14.01,2013-04-02 11:50:00,
2013-04-02 07:55:00,30.0,15.4,30.00,NW,304,2.0,5.0,54,0.00,,---,0.00,VWS V14.01,2013-04-02 11:55:00,
2013-04-02 08:00:00,30.3,15.2,30.01,WNW,296,6.0,10.0,53,0.00,,---,0.00,VWS V14.01,2013-04-02 12:00:00,
2013-04-02 08:05:00,30.4,15.8,30.01,WNW,290,0.0,5.0,54,0.00,,---,0.00,VWS V14.01,2013-04-02 12:05:00,
2013-04-02 08:10:00,30.6,15.5,30.01,WNW,286,4.0,9.0,53,0.00,,---,0.00,VWS V14.01,2013-04-02 12:10:00,
2013-04-02 08:15:00,30.7,16.5,30.02,WNW,287,1.0,7.0,55,0.00,,---,0.00,VWS V14.01,2013-04-02 12:15:00,
2013-04-02 08:20:00,31.0,16.3,30.02,WNW,292,2.0,7.0,54,0.00,,---,0.00,VWS V14.01,2013-04-02 12:20:00,
2013-04-02 08:25:00,31.3,16.6,30.02,WNW,288,4.0,5.0,54,0.00,,---,0.00,VWS V14.01,2013-04-02 12:25:00,
2013-04-02 08:30:00,31.5,16.4,30.03,West,275,0.0,4.0,53,0.00,,---,0.00,VWS V14.01,2013-04-02 12:30:00,
2013-04-02 08:35:00,31.5,15.9,30.03,West,271,2.0,9.0,52,0.00,,---,0.00,VWS V14.01,2013-04-02 12:35:00,
2013-04-02 08:40:00,31.8,16.6,30.03,West,279,4.0,12.0,53,0.00,,---,0.00,VWS V14.01,2013-04-02 12:40:00,
2013-04-02 08:45:00,32.1,16.5,30.03,NW,316,5.0,7.0,52,0.00,,---,0.00,VWS V14.01,2013-04-02 12:45:00,
2013-04-02 08:50:00,31.8,14.8,30.03,WNW,287,3.0,10.0,49,0.00,,---,0.00,VWS V14.01,2013-04-02 12:50:00,
2013-04-02 08:55:00,31.9,15.4,30.03,WSW,258,9.0,10.0,50,0.00,,---,0.00,VWS V14.01,2013-04-02 12:55:00,
2013-04-02 09:00:00,32.1,16.0,30.03,WNW,290,7.0,14.0,51,0.00,,---,0.00,VWS V14.01,2013-04-02 13:00:00,
2013-04-02 09:05:00,32.2,16.1,30.03,West,275,9.0,12.0,51,0.00,,---,0.00,VWS V14.01,2013-04-02 13:05:00,
2013-04-02 09:10:00,32.4,15.9,30.03,WNW,282,6.0,14.0,50,0.00,,---,0.00,VWS V14.01,2013-04-02 13:10:00,
2013-04-02 09:15:00,32.4,15.4,30.03,West,271,7.0,15.0,49,0.00,,---,0.00,VWS V14.01,2013-04-02 13:15:00,
2013-04-02 09:20:00,32.4,17.6,30.03,NW,312,9.0,12.0,54,0.00,,---,0.00,VWS V14.01,2013-04-02 13:20:00,
2013-04-02 09:25:00,32.7,16.1,30.03,WNW,298,3.0,12.0,50,0.00,,---,0.00,VWS V14.01,2013-04-02 13:25:00,
2013-04-02 09:30:00,32.8,16.2,30.03,West,281,2.0,11.0,50,0.00,,---,0.00,VWS V14.01,2013-04-02 13:30:00,
2013-04-02 09:35:00,33.4,16.3,30.03,West,275,11.0,14.0,49,0.00,,---,0.00,VWS V14.01,2013-04-02 13:35:00,
2013-04-02 09:40:00,33.7,16.1,30.03,West,273,8.0,15.0,48,0.00,,---,0.00,VWS V14.01,2013-04-02 13:40:00,
2013-04-02 09:45:00,33.4,14.4,30.03,West,279,9.0,12.0,45,0.00,,---,0.00,VWS V14.01,2013-04-02 13:45:00,
2013-04-02 09:50:00,33.7,15.6,30.03,WNW,298,5.0,14.0,47,0.00,,---,0.00,VWS V14.01,2013-04-02 13:50:00,
2013-04-02 09:55:00,33.7,14.6,30.03,WNW,286,7.0,14.0,45,0.00,,---,0.00,VWS V14.01,2013-04-02 13:55:00,
2013-04-02 10:00:00,33.4,14.9,30.03,West,281,11.0,18.0,46,0.00,,---,0.00,VWS V14.01,2013-04-02 14:00:00,
2013-04-02 10:05:00,33.7,14.6,30.03,WNW,292,5.0,10.0,45,0.00,,---,0.00,VWS V14.01,2013-04-02 14:05:00,
2013-04-02 10:10:00,33.5,15.4,30.03,NW,305,4.0,16.0,47,0.00,,---,0.00,VWS V14.01,2013-04-02 14:10:00,
2013-04-02 10:15:00,33.1,14.1,30.03,NW,304,8.0,14.0,45,0.00,,---,0.00,VWS V14.01,2013-04-02 14:15:00,
2013-04-02 10:20:00,32.7,14.2,30.03,WNW,299,5.0,9.0,46,0.00,,---,0.00,VWS V14.01,2013-04-02 14:20:00,
2013-04-02 10:25:00,33.1,14.6,30.03,West,261,13.0,13.0,46,0.00,,---,0.00,VWS V14.01,2013-04-02 14:25:00,
2013-04-02 10:30:00,32.8,14.8,30.03,West,274,5.0,16.0,47,0.00,,---,0.00,VWS V14.01,2013-04-02 14:30:00,
2013-04-02 10:35:00,33.1,16.5,30.03,NW,311,6.0,13.0,50,0.00,,---,0.00,VWS V14.01,2013-04-02 14:35:00,
2013-04-02 10:40:00,33.1,16.5,30.03,NW,304,4.0,14.0,50,0.00,,---,0.00,VWS V14.01,2013-04-02 14:40:00,
2013-04-02 10:45:00,33.4,16.3,30.04,West,273,10.0,15.0,49,0.00,,---,0.00,VWS V14.01,2013-04-02 14:45:00,
2013-04-02 10:50:00,34.3,16.7,30.04,NW,315,7.0,10.0,48,0.00,,---,0.00,VWS V14.01,2013-04-02 14:50:00,
2013-04-02 10:55:00,32.8,15.3,30.04,West,281,0.0,9.0,48,0.00,,---,0.00,VWS V14.01,2013-04-02 14:55:00,
2013-04-02 11:00:00,32.2,16.6,30.05,WNW,297,3.0,12.0,52,0.00,,---,0.00,VWS V14.01,2013-04-02 15:00:00,
2013-04-02 11:05:00,32.5,15.9,30.05,WNW,284,3.0,14.0,50,0.00,,---,0.00,VWS V14.01,2013-04-02 15:05:00,
2013-04-02 11:10:00,32.2,16.1,30.05,West,269,3.0,11.0,51,0.00,,---,0.00,VWS V14.01,2013-04-02 15:10:00,
2013-04-02 11:15:00,32.1,16.0,30.05,West,271,0.0,11.0,51,0.00,,---,0.00,VWS V14.01,2013-04-02 15:15:00,
2013-04-02 11:20:00,33.1,17.0,30.05,West,281,2.0,12.0,51,0.00,,---,0.00,VWS V14.01,2013-04-02 15:20:00,
2013-04-02 11:25:00,32.9,16.3,30.05,West,275,7.0,11.0,50,0.00,,---,0.00,VWS V14.01,2013-04-02 15:25:00,
2013-04-02 11:30:00,32.8,16.2,30.05,NNW,328,0.0,15.0,50,0.00,,---,0.00,VWS V14.01,2013-04-02 15:30:00,
2013-04-02 11:35:00,32.7,17.0,30.05,West,271,0.0,7.0,52,0.00,,---,0.00,VWS V14.01,2013-04-02 15:35:00,
2013-04-02 11:40:00,33.5,17.3,30.05,WSW,257,0.0,9.0,51,0.00,,---,0.00,VWS V14.01,2013-04-02 15:40:00,
2013-04-02 11:45:00,33.1,16.0,30.05,West,276,6.0,13.0,49,0.00,,---,0.00,VWS V14.01,2013-04-02 15:45:00,
2013-04-02 11:50:00,32.9,17.2,30.05,West,268,5.0,12.0,52,0.00,,---,0.00,VWS V14.01,2013-04-02 15:50:00,
2013-04-02 11:55:00,33.4,17.2,30.05,WSW,240,6.0,14.0,51,0.00,,---,0.00,VWS V14.01,2013-04-02 15:55:00,
2013-04-02 12:00:00,35.0,18.7,30.05,West,281,5.0,5.0,51,0.00,,---,0.00,VWS V14.01,2013-04-02 16:00:00,
2013-04-02 12:05:00,35.8,19.5,30.05,WNW,301,11.0,15.0,51,0.00,,---,0.00,VWS V14.01,2013-04-02 16:05:00,
2013-04-02 12:10:00,36.5,18.2,30.05,WNW,290,9.0,12.0,47,0.00,,---,0.00,VWS V14.01,2013-04-02 16:10:00,
2013-04-02 12:15:00,36.6,15.7,30.04,WNW,296,6.0,9.0,42,0.00,,---,0.00,VWS V14.01,2013-04-02 16:15:00,
2013-04-02 12:20:00,36.6,16.2,30.04,WNW,286,7.0,9.0,43,0.00,,---,0.00,VWS V14.01,2013-04-02 16:20:00,
2013-04-02 12:25:00,34.9,13.6,30.04,WSW,257,10.0,10.0,41,0.00,,---,0.00,VWS V14.01,2013-04-02 16:25:00,
2013-04-02 12:30:00,36.5,16.7,30.05,NW,311,6.0,6.0,44,0.00,,---,0.00,VWS V14.01,2013-04-02 16:30:00,
2013-04-02 12:35:00,35.8,17.1,30.05,West,272,13.0,14.0,46,0.00,,---,0.00,VWS V14.01,2013-04-02 16:35:00,
2013-04-02 12:40:00,36.5,18.2,30.05,West,281,6.0,9.0,47,0.00,,---,0.00,VWS V14.01,2013-04-02 16:40:00,
2013-04-02 12:45:00,37.0,15.5,30.05,West,267,5.0,5.0,41,0.00,,---,0.00,VWS V14.01,2013-04-02 16:45:00,
2013-04-02 12:50:00,37.0,17.1,30.05,NW,310,6.0,13.0,44,0.00,,---,0.00,VWS V14.01,2013-04-02 16:50:00,
2013-04-02 12:55:00,37.9,16.9,30.05,WNW,297,5.0,17.0,42,0.00,,---,0.00,VWS V14.01,2013-04-02 16:55:00,
2013-04-02 13:00:00,37.5,13.6,30.05,West,266,13.0,13.0,37,0.00,,---,0.00,VWS V14.01,2013-04-02 17:00:00,
2013-04-02 13:05:00,36.2,15.3,30.05,WNW,289,5.0,5.0,42,0.00,,---,0.00,VWS V14.01,2013-04-02 17:05:00,
2013-04-02 13:10:00,38.2,16.6,30.05,NW,306,12.0,12.0,41,0.00,,---,0.00,VWS V14.01,2013-04-02 17:10:00,
2013-04-02 13:15:00,36.8,13.6,30.04,West,267,15.0,15.0,38,0.00,,---,0.00,VWS V14.01,2013-04-02 17:15:00,
2013-04-02 13:20:00,36.8,15.3,30.04,NNW,340,0.0,5.0,41,0.00,,---,0.00,VWS V14.01,2013-04-02 17:20:00,
2013-04-02 13:25:00,37.0,14.9,30.04,NW,310,9.0,13.0,40,0.00,,---,0.00,VWS V14.01,2013-04-02 17:25:00,
2013-04-02 13:30:00,37.8,15.1,30.04,WNW,294,5.0,15.0,39,0.00,,---,0.00,VWS V14.01,2013-04-02 17:30:00,
2013-04-02 13:35:00,38.6,15.2,30.04,WSW,256,12.0,12.0,38,0.00,,---,0.00,VWS V14.01,2013-04-02 17:35:00,
2013-04-02 13:40:00,38.9,15.5,30.04,West,263,7.0,12.0,38,0.00,,---,0.00,VWS V14.01,2013-04-02 17:40:00,
2013-04-02 13:45:00,38.2,14.8,30.04,WSW,242,12.0,15.0,38,0.00,,---,0.00,VWS V14.01,2013-04-02 17:45:00,
2013-04-02 13:50:00,38.6,14.6,30.04,WNW,302,9.0,15.0,37,0.00,,---,0.00,VWS V14.01,2013-04-02 17:50:00,
2013-04-02 13:55:00,38.6,14.6,30.04,West,266,5.0,11.0,37,0.00,,---,0.00,VWS V14.01,2013-04-02 17:55:00,
2013-04-02 14:00:00,38.9,16.6,30.03,North,355,0.0,1.0,40,0.00,,---,0.00,VWS V14.01,2013-04-02 18:00:00,
2013-04-02 14:05:00,38.9,14.2,30.03,West,266,18.0,22.0,36,0.00,,---,0.00,VWS V14.01,2013-04-02 18:05:00,
2013-04-02 14:10:00,38.8,14.8,30.03,WNW,288,4.0,4.0,37,0.00,,---,0.00,VWS V14.01,2013-04-02 18:10:00,
2013-04-02 14:15:00,39.5,16.0,30.02,NW,315,7.0,14.0,38,0.00,,---,0.00,VWS V14.01,2013-04-02 18:15:00,
2013-04-02 14:20:00,40.1,17.1,30.02,NNW,335,2.0,7.0,39,0.00,,---,0.00,VWS V14.01,2013-04-02 18:20:00,
2013-04-02 14:25:00,39.3,15.8,30.02,WNW,295,4.0,5.0,38,0.00,,---,0.00,VWS V14.01,2013-04-02 18:25:00,
2013-04-02 14:30:00,37.8,14.5,30.02,NNW,329,3.0,3.0,38,0.00,,---,0.00,VWS V14.01,2013-04-02 18:30:00,
2013-04-02 14:35:00,37.3,14.6,30.02,West,277,0.0,10.0,39,0.00,,---,0.00,VWS V14.01,2013-04-02 18:35:00,
2013-04-02 14:40:00,38.3,14.3,30.02,WNW,296,6.0,7.0,37,0.00,,---,0.00,VWS V14.01,2013-04-02 18:40:00,
2013-04-02 14:45:00,39.2,13.9,30.02,NNW,332,4.0,4.0,35,0.00,,---,0.00,VWS V14.01,2013-04-02 18:45:00,
2013-04-02 14:50:00,38.8,13.5,30.02,WNW,303,7.0,13.0,35,0.00,,---,0.00,VWS V14.01,2013-04-02 18:50:00,
2013-04-02 14:56:00,39.6,14.2,30.02,NW,311,3.0,9.0,35,0.00,,---,0.00,VWS V14.01,2013-04-02 18:56:00,
2013-04-02 15:01:00,39.6,14.2,30.01,WSW,247,6.0,12.0,35,0.00,,---,0.00,VWS V14.01,2013-04-02 19:01:00,
2013-04-02 15:06:00,39.8,15.0,30.01,WNW,293,3.0,11.0,36,0.00,,---,0.00,VWS V14.01,2013-04-02 19:06:00,
2013-04-02 15:11:00,39.8,14.4,30.01,WSW,246,1.0,5.0,35,0.00,,---,0.00,VWS V14.01,2013-04-02 19:11:00,
2013-04-02 15:16:00,39.9,13.8,30.01,NW,304,4.0,7.0,34,0.00,,---,0.00,VWS V14.01,2013-04-02 19:16:00,
2013-04-02 15:21:00,39.9,14.5,30.01,WNW,287,3.0,12.0,35,0.00,,---,0.00,VWS V14.01,2013-04-02 19:21:00,
2013-04-02 15:26:00,39.2,12.5,30.01,NW,313,13.0,13.0,33,0.00,,---,0.00,VWS V14.01,2013-04-02 19:26:00,
2013-04-02 15:32:00,38.8,13.5,30.01,NNW,327,5.0,7.0,35,0.00,,---,0.00,VWS V14.01,2013-04-02 19:32:00,
2013-04-02 15:37:00,39.8,14.4,30.01,West,263,6.0,17.0,35,0.00,,---,0.00,VWS V14.01,2013-04-02 19:37:00,
2013-04-02 15:42:00,39.8,13.7,30.01,WNW,296,9.0,18.0,34,0.00,,---,0.00,VWS V14.01,2013-04-02 19:42:00,
2013-04-02 15:47:00,38.3,14.3,30.01,West,263,15.0,18.0,37,0.00,,---,0.00,VWS V14.01,2013-04-02 19:47:00,
2013-04-02 15:52:00,39.3,14.6,30.01,West,281,5.0,13.0,36,0.00,,---,0.00,VWS V14.01,2013-04-02 19:52:00,
2013-04-02 15:57:00,40.6,14.4,30.01,West,261,7.0,11.0,34,0.00,,---,0.00,VWS V14.01,2013-04-02 19:57:00,
2013-04-02 16:02:00,40.8,15.3,30.01,WNW,290,0.0,0.0,35,0.00,,---,0.00,VWS V14.01,2013-04-02 20:02:00,
2013-04-02 16:07:00,40.6,13.8,30.01,North,355,3.0,10.0,33,0.00,,---,0.00,VWS V14.01,2013-04-02 20:07:00,
2013-04-02 16:12:00,40.5,15.0,30.01,WSW,252,0.0,4.0,35,0.00,,---,0.00,VWS V14.01,2013-04-02 20:12:00,
2013-04-02 16:17:00,40.8,13.2,30.01,North,360,7.0,10.0,32,0.00,,---,0.00,VWS V14.01,2013-04-02 20:17:00,
2013-04-02 16:22:00,40.9,12.6,30.01,WNW,285,4.0,9.0,31,0.00,,---,0.00,VWS V14.01,2013-04-02 20:22:00,
2013-04-02 16:27:00,40.8,13.2,30.01,WNW,294,4.0,9.0,32,0.00,,---,0.00,VWS V14.01,2013-04-02 20:27:00,
2013-04-02 16:32:00,40.6,14.4,30.01,North,351,3.0,9.0,34,0.00,,---,0.00,VWS V14.01,2013-04-02 20:32:00,
2013-04-02 16:37:00,40.8,13.2,30.01,NW,325,1.0,10.0,32,0.00,,---,0.00,VWS V14.01,2013-04-02 20:37:00,
2013-04-02 16:42:00,40.6,11.6,30.01,West,274,4.0,9.0,30,0.00,,---,0.00,VWS V14.01,2013-04-02 20:42:00,
2013-04-02 16:47:00,40.8,13.9,30.01,WNW,288,2.0,13.0,33,0.00,,---,0.00,VWS V14.01,2013-04-02 20:47:00,
2013-04-02 16:52:00,41.1,12.0,30.01,WNW,292,6.0,13.0,30,0.00,,---,0.00,VWS V14.01,2013-04-02 20:52:00,
2013-04-02 16:57:00,40.9,10.3,30.01,WSW,250,6.0,10.0,28,0.00,,---,0.00,VWS V14.01,2013-04-02 20:57:00,
2013-04-02 17:02:00,40.8,11.8,30.01,WNW,284,11.0,11.0,30,0.00,,---,0.00,VWS V14.01,2013-04-02 21:02:00,
2013-04-02 17:07:00,40.8,12.5,30.01,NW,305,4.0,15.0,31,0.00,,---,0.00,VWS V14.01,2013-04-02 21:07:00,
2013-04-02 17:12:00,40.2,10.5,30.01,NNW,328,6.0,12.0,29,0.00,,---,0.00,VWS V14.01,2013-04-02 21:12:00,
2013-04-02 17:17:00,39.6,11.5,30.01,WNW,295,2.0,10.0,31,0.00,,---,0.00,VWS V14.01,2013-04-02 21:17:00,
2013-04-02 17:22:00,40.2,12.0,30.01,WNW,294,6.0,11.0,31,0.00,,---,0.00,VWS V14.01,2013-04-02 21:22:00,
2013-04-02 17:27:00,40.2,11.3,30.01,NNW,338,8.0,12.0,30,0.00,,---,0.00,VWS V14.01,2013-04-02 21:27:00,
2013-04-02 17:32:00,40.5,12.3,30.01,NNW,344,9.0,14.0,31,0.00,,---,0.00,VWS V14.01,2013-04-02 21:32:00,
2013-04-02 17:37:00,40.1,10.4,30.01,NW,315,5.0,10.0,29,0.00,,---,0.00,VWS V14.01,2013-04-02 21:37:00,
2013-04-02 17:42:00,40.1,11.9,30.01,WNW,293,3.0,9.0,31,0.00,,---,0.00,VWS V14.01,2013-04-02 21:42:00,
2013-04-02 17:48:00,40.3,11.4,30.02,North,355,3.0,7.0,30,0.00,,---,0.00,VWS V14.01,2013-04-02 21:48:00,
2013-04-02 17:53:00,40.2,10.5,30.02,North,360,3.0,9.0,29,0.00,,---,0.00,VWS V14.01,2013-04-02 21:53:00,
2013-04-02 17:58:00,40.3,11.4,30.02,NNE,13,2.0,7.0,30,0.00,,---,0.00,VWS V14.01,2013-04-02 21:58:00,
2013-04-02 18:03:00,40.5,10.8,30.03,North,355,2.0,7.0,29,0.00,,---,0.00,VWS V14.01,2013-04-02 22:03:00,
2013-04-02 18:08:00,40.2,12.0,30.03,NNW,344,2.0,8.0,31,0.00,,---,0.00,VWS V14.01,2013-04-02 22:08:00,
2013-04-02 18:13:00,40.1,10.4,30.03,West,281,5.0,13.0,29,0.00,,---,0.00,VWS V14.01,2013-04-02 22:13:00,
2013-04-02 18:18:00,39.9,9.4,30.03,NW,306,2.0,19.0,28,0.00,,---,0.00,VWS V14.01,2013-04-02 22:18:00,
2013-04-02 18:23:00,39.6,10.0,30.03,NNE,17,5.0,8.0,29,0.00,,---,0.00,VWS V14.01,2013-04-02 22:23:00,
2013-04-02 18:28:00,39.6,10.7,30.03,WNW,299,0.0,5.0,30,0.00,,---,0.00,VWS V14.01,2013-04-02 22:28:00,
2013-04-02 18:33:00,39.6,10.7,30.04,NW,317,4.0,6.0,30,0.00,,---,0.00,VWS V14.01,2013-04-02 22:33:00,
2013-04-02 18:38:00,39.6,11.5,30.04,NW,304,0.0,5.0,31,0.00,,---,0.00,VWS V14.01,2013-04-02 22:38:00,
2013-04-02 18:43:00,39.5,11.4,30.04,WNW,296,2.0,7.0,31,0.00,,---,0.00,VWS V14.01,2013-04-02 22:43:00,
2013-04-02 18:48:00,39.1,10.3,30.04,North,5,3.0,9.0,30,0.00,,---,0.00,VWS V14.01,2013-04-02 22:48:00,
2013-04-02 18:54:00,38.9,10.9,30.04,NW,306,2.0,10.0,31,0.00,,---,0.00,VWS V14.01,2013-04-02 22:54:00,
2013-04-02 18:59:00,38.8,10.8,30.04,West,279,2.0,5.0,31,0.00,,---,0.00,VWS V14.01,2013-04-02 22:59:00,
2013-04-02 19:04:00,38.6,9.9,30.04,North,355,6.0,6.0,30,0.00,,---,0.00,VWS V14.01,2013-04-02 23:04:00,
2013-04-02 19:09:00,38.3,9.6,30.04,WNW,303,0.0,7.0,30,0.00,,---,0.00,VWS V14.01,2013-04-02 23:09:00,
2013-04-02 19:14:00,38.2,9.5,30.04,WNW,283,0.0,5.0,30,0.00,,---,0.00,VWS V14.01,2013-04-02 23:14:00,
2013-04-02 19:19:00,37.8,9.9,30.05,NW,322,0.0,4.0,31,0.00,,---,0.00,VWS V14.01,2013-04-02 23:19:00,
2013-04-02 19:24:00,37.5,10.3,30.05,WNW,287,4.0,11.0,32,0.00,,---,0.00,VWS V14.01,2013-04-02 23:24:00,
2013-04-02 19:29:00,37.2,10.8,30.05,West,275,0.0,7.0,33,0.00,,---,0.00,VWS V14.01,2013-04-02 23:29:00,
2013-04-02 19:34:00,36.9,10.5,30.05,NW,319,0.0,1.0,33,0.00,,---,0.00,VWS V14.01,2013-04-02 23:34:00,
2013-04-02 19:39:00,36.6,10.2,30.05,West,274,0.0,5.0,33,0.00,,---,0.00,VWS V14.01,2013-04-02 23:39:00,
2013-04-02 19:44:00,36.5,10.1,30.05,NW,315,0.0,5.0,33,0.00,,---,0.00,VWS V14.01,2013-04-02 23:44:00,
2013-04-02 19:49:00,36.2,11.2,30.06,NW,304,0.0,2.0,35,0.00,,---,0.00,VWS V14.01,2013-04-02 23:49:00,
2013-04-02 19:54:00,36.0,11.0,30.06,NW,326,0.0,5.0,35,0.00,,---,0.00,VWS V14.01,2013-04-02 23:54:00,
2013-04-02 19:59:00,36.0,11.0,30.06,NW,304,0.0,4.0,35,0.00,,---,0.00,VWS V14.01,2013-04-02 23:59:00,
2013-04-02 20:04:00,35.9,10.9,30.06,NW,304,0.0,4.0,35,0.00,,---,0.00,VWS V14.01,2013-04-03 00:04:00,
2013-04-02 20:09:00,35.9,10.9,30.06,NW,309,2.0,6.0,35,0.00,,---,0.00,VWS V14.01,2013-04-03 00:09:00,
2013-04-02 20:14:00,35.9,10.9,30.06,NNW,337,2.0,4.0,35,0.00,,---,0.00,VWS V14.01,2013-04-03 00:14:00,
2013-04-02 20:19:00,35.9,10.9,30.07,NW,315,3.0,3.0,35,0.00,,---,0.00,VWS V14.01,2013-04-03 00:19:00,
2013-04-02 20:24:00,35.9,10.9,30.07,West,278,2.0,4.0,35,0.00,,---,0.00,VWS V14.01,2013-04-03 00:24:00,
2013-04-02 20:29:00,35.6,10.7,30.07,North,355,0.0,5.0,35,0.00,,---,0.00,VWS V14.01,2013-04-03 00:29:00,
2013-04-02 20:34:00,35.5,10.6,30.08,WNW,299,0.0,5.0,35,0.00,,---,0.00,VWS V14.01,2013-04-03 00:34:00,
2013-04-02 20:39:00,35.5,10.6,30.08,NW,310,0.0,5.0,35,0.00,,---,0.00,VWS V14.01,2013-04-03 00:39:00,
2013-04-02 20:44:00,35.3,11.0,30.08,North,355,0.0,4.0,36,0.00,,---,0.00,VWS V14.01,2013-04-03 00:44:00,
2013-04-02 20:49:00,35.3,11.0,30.08,WNW,286,0.0,1.0,36,0.00,,---,0.00,VWS V14.01,2013-04-03 00:49:00,
2013-04-02 20:54:00,35.2,10.3,30.08,WNW,298,0.0,6.0,35,0.00,,---,0.00,VWS V14.01,2013-04-03 00:54:00,
2013-04-02 20:59:00,35.0,10.8,30.09,North,355,0.0,4.0,36,0.00,,---,0.00,VWS V14.01,2013-04-03 00:59:00,
2013-04-02 21:04:00,35.2,10.3,30.09,WNW,299,0.0,1.0,35,0.00,,---,0.00,VWS V14.01,2013-04-03 01:04:00,
2013-04-02 21:09:00,34.9,11.3,30.09,NNE,22,4.0,4.0,37,0.00,,---,0.00,VWS V14.01,2013-04-03 01:09:00,
2013-04-02 21:14:00,35.0,10.1,30.09,North,351,0.0,6.0,35,0.00,,---,0.00,VWS V14.01,2013-04-03 01:14:00,
2013-04-02 21:19:00,35.0,10.8,30.09,WNW,300,4.0,6.0,36,0.00,,---,0.00,VWS V14.01,2013-04-03 01:19:00,
2013-04-02 21:24:00,35.2,10.3,30.09,North,355,2.0,9.0,35,0.00,,---,0.00,VWS V14.01,2013-04-03 01:24:00,
2013-04-02 21:29:00,35.0,10.8,30.09,WNW,300,2.0,7.0,36,0.00,,---,0.00,VWS V14.01,2013-04-03 01:29:00,
2013-04-02 21:34:00,34.9,10.7,30.09,NW,306,2.0,6.0,36,0.00,,---,0.00,VWS V14.01,2013-04-03 01:34:00,
2013-04-02 21:39:00,34.9,10.0,30.09,NW,315,0.0,5.0,35,0.00,,---,0.00,VWS V14.01,2013-04-03 01:39:00,
2013-04-02 21:44:00,34.7,10.5,30.10,NNW,333,0.0,4.0,36,0.00,,---,0.00,VWS V14.01,2013-04-03 01:44:00,
2013-04-02 21:49:00,34.7,10.5,30.10,NNW,344,0.0,2.0,36,0.00,,---,0.00,VWS V14.01,2013-04-03 01:49:00,
2013-04-02 21:54:00,34.7,10.5,30.10,WNW,300,0.0,5.0,36,0.00,,---,0.00,VWS V14.01,2013-04-03 01:54:00,
2013-04-02 21:59:00,34.6,10.4,30.11,WNW,290,0.0,8.0,36,0.00,,---,0.00,VWS V14.01,2013-04-03 01:59:00,
2013-04-02 22:04:00,34.6,10.4,30.11,WNW,300,0.0,3.0,36,0.00,,---,0.00,VWS V14.01,2013-04-03 02:04:00,
2013-04-02 22:09:00,34.1,10.6,30.11,NW,307,0.0,5.0,37,0.00,,---,0.00,VWS V14.01,2013-04-03 02:09:00,
2013-04-02 22:14:00,34.1,11.2,30.11,WNW,294,0.0,4.0,38,0.00,,---,0.00,VWS V14.01,2013-04-03 02:14:00,
2013-04-02 22:19:00,33.8,11.5,30.11,NNW,340,0.0,4.0,39,0.00,,---,0.00,VWS V14.01,2013-04-03 02:19:00,
2013-04-02 22:25:00,33.2,10.9,30.11,NW,318,0.0,4.0,39,0.00,,---,0.00,VWS V14.01,2013-04-03 02:25:00,
2013-04-02 22:29:00,33.5,11.2,30.11,WNW,286,0.0,4.0,39,0.00,,---,0.00,VWS V14.01,2013-04-03 02:29:00,
2013-04-02 22:34:00,33.4,11.7,30.11,WNW,286,0.0,0.0,40,0.00,,---,0.00,VWS V14.01,2013-04-03 02:34:00,
2013-04-02 22:40:00,32.9,10.7,30.11,WNW,297,0.0,3.0,39,0.00,,---,0.00,VWS V14.01,2013-04-03 02:40:00,
2013-04-02 22:45:00,33.1,11.4,30.11,WNW,298,0.0,2.0,40,0.00,,---,0.00,VWS V14.01,2013-04-03 02:45:00,
2013-04-02 22:50:00,33.1,11.4,30.11,WNW,302,0.0,1.0,40,0.00,,---,0.00,VWS V14.01,2013-04-03 02:50:00,
2013-04-02 22:55:00,32.8,11.7,30.11,WNW,302,0.0,1.0,41,0.00,,---,0.00,VWS V14.01,2013-04-03 02:55:00,
2013-04-02 23:00:00,32.8,11.7,30.11,WNW,302,0.0,4.0,41,0.00,,---,0.00,VWS V14.01,2013-04-03 03:00:00,
2013-04-02 23:05:00,32.9,11.8,30.11,NNW,342,1.0,4.0,41,0.00,,---,0.00,VWS V14.01,2013-04-03 03:05:00,
2013-04-02 23:10:00,32.9,11.8,30.11,NW,310,0.0,3.0,41,0.00,,---,0.00,VWS V14.01,2013-04-03 03:10:00,
2013-04-02 23:15:00,33.1,12.0,30.11,North,355,0.0,3.0,41,0.00,,---,0.00,VWS V14.01,2013-04-03 03:15:00,
2013-04-02 23:20:00,32.9,11.8,30.11,WNW,300,0.0,4.0,41,0.00,,---,0.00,VWS V14.01,2013-04-03 03:20:00,
2013-04-02 23:25:00,32.9,11.8,30.11,NNW,338,2.0,10.0,41,0.00,,---,0.00,VWS V14.01,2013-04-03 03:25:00,
2013-04-02 23:30:00,32.9,11.8,30.11,North,351,3.0,5.0,41,0.00,,---,0.00,VWS V14.01,2013-04-03 03:30:00,
2013-04-02 23:35:00,32.9,12.3,30.11,NW,321,0.0,6.0,42,0.00,,---,0.00,VWS V14.01,2013-04-03 03:35:00,
2013-04-02 23:40:00,32.9,12.3,30.11,NW,304,0.0,4.0,42,0.00,,---,0.00,VWS V14.01,2013-04-03 03:40:00,
2013-04-02 23:45:00,33.1,12.0,30.11,NW,312,0.0,6.0,41,0.00,,---,0.00,VWS V14.01,2013-04-03 03:45:00,
2013-04-02 23:50:00,33.1,12.5,30.11,NW,304,0.0,7.0,42,0.00,,---,0.00,VWS V14.01,2013-04-03 03:50:00,
2013-04-02 23:55:00,33.1,12.0,30.11,NW,315,0.0,7.0,41,0.00,,---,0.00,VWS V14.01,2013-04-03 03:55:00,